Date,TemperatureHighF,TemperatureAvgF,TemperatureLowF,DewpointHighF,DewpointAvgF,DewpointLowF,HumidityHigh,HumidityAvg,HumidityLow,PressureMaxIn,PressureMinIn,WindSpeedMaxMPH,WindSpeedAvgMPH,GustSpeedMaxMPH,PrecipitationSumIn
2013-1-1,58.3,50.8,43.2,57.2,46.1,36.4,96,84,71,30.27,29.97,24,6,24,0.14
2013-1-2,44.1,40.8,36.8,36.5,30.3,28.0,79,66,54,30.38,30.26,19,5,19,0.00
2013-1-3,47.0,42.2,38.2,31.7,30.3,28.1,72,63,52,30.49,30.35,15,4,15,0.00
2013-1-4,44.6,41.9,38.9,39.4,36.1,30.7,90,80,58,30.56,30.42,16,5,16,0.05
2013-1-5,52.5,44.3,38.2,41.7,38.5,35.5,91,80,63,30.44,30.27,9,1,9,0.01
2013-1-6,59.3,45.6,33.4,37.8,32.5,27.3,94,65,31,30.42,30.31,21,3,21,0.01
2013-1-7,58.3,47.1,33.5,47.2,36.3,27.7,83,67,48,30.36,30.08,12,1,12,0.00
2013-1-8,57.5,52.2,48.2,56.7,50.9,46.6,97,95,84,30.08,29.86,17,2,17,0.72
2013-1-9,62.4,57.2,52.0,58.1,54.7,51.1,98,92,80,30.06,29.87,19,4,19,1.07
2013-1-10,68.3,56.0,46.2,51.5,45.2,40.9,96,71,39,30.08,30.01,16,2,16,0.01
2013-1-11,71.5,59.2,44.3,66.5,54.6,42.1,93,85,72,30.06,29.84,12,1,12,0.00
2013-1-12,75.4,70.1,53.1,67.3,63.2,39.5,92,79,56,29.87,29.67,25,3,25,0.00
2013-1-13,54.7,47.6,40.5,40.2,31.6,26.8,64,54,40,30.23,29.88,26,9,26,0.00
2013-1-14,49.8,42.0,36.9,33.3,28.5,23.1,65,59,49,30.28,30.14,24,7,24,0.00
2013-1-15,44.2,38.9,36.5,36.7,33.1,25.8,93,80,63,30.29,30.14,20,7,20,0.00
2013-1-16,55.6,41.7,29.5,26.3,19.7,11.1,69,45,18,30.40,30.23,20,3,20,0.00
2013-1-17,66.0,49.2,34.9,35.2,30.1,22.6,72,50,27,30.51,30.34,16,2,16,0.00
2013-1-18,66.6,51.1,35.9,41.4,33.2,29.5,79,54,26,30.56,30.36,11,1,11,0.00
2013-1-19,70.1,54.2,38.0,47.4,41.6,35.9,93,66,34,30.36,30.19,14,1,15,0.00
2013-1-20,72.5,56.1,40.6,54.3,45.7,37.3,89,70,42,30.29,30.13,12,0,12,0.00
2013-1-21,74.4,58.8,45.4,53.4,48.3,42.9,92,70,43,30.27,30.16,10,0,10,0.00
2013-1-22,74.9,60.1,47.9,50.7,46.4,40.0,78,62,40,30.34,30.22,13,1,13,0.00
2013-1-23,77.0,62.3,49.4,59.6,53.7,46.2,96,76,45,30.38,30.23,15,1,15,0.00
2013-1-24,79.8,67.0,59.3,62.2,59.6,56.3,95,79,50,30.30,30.14,13,1,13,0.00
2013-1-25,81.1,69.6,63.2,62.5,60.6,58.4,92,75,47,30.19,30.04,14,2,14,0.00
2013-1-26,76.3,62.9,53.9,62.3,54.8,49.1,92,76,51,30.21,30.06,17,3,17,0.00
2013-1-27,77.9,68.7,60.1,65.7,62.5,57.8,94,81,61,30.14,29.99,20,3,20,0.00
2013-1-28,76.5,72.4,69.8,66.9,65.7,64.2,89,80,67,30.08,29.90,22,4,22,0.00
2013-1-29,86.5,73.4,58.4,66.3,56.2,25.4,82,59,27,29.91,29.53,32,6,32,0.00
2013-1-30,58.3,52.7,48.9,28.4,21.9,17.7,39,30,25,30.15,29.85,26,4,26,0.00
2013-2-4,78.8,68.1,58.9,59.6,57.0,54.0,91,69,46,29.99,29.82,15,1,15,0.00
2013-2-5,82.2,67.6,55.7,58.5,48.4,36.5,96,58,21,30.01,29.90,11,1,11,0.00
2013-2-6,74.4,65.6,60.5,60.7,58.3,53.1,92,78,55,30.02,29.87,15,2,15,0.14
2013-2-7,78.3,66.4,60.4,62.2,56.9,40.1,89,73,35,30.10,29.90,15,1,15,0.00
2013-2-8,71.5,60.9,50.4,47.8,37.8,29.7,71,46,22,30.26,30.09,19,4,19,0.00
2013-2-9,70.3,60.8,54.5,66.6,56.8,39.6,94,87,52,30.13,29.82,19,2,19,0.00
2013-2-10,71.3,65.7,59.5,66.9,45.0,27.2,92,52,24,30.03,29.76,21,3,21,0.02
2013-2-11,61.0,56.1,51.9,50.7,45.8,39.0,94,70,46,30.09,29.98,15,3,15,0.04
2013-2-12,73.5,60.5,51.9,57.8,46.0,23.2,96,67,20,30.06,29.83,18,3,18,0.01
2013-2-13,65.3,52.3,40.8,41.4,32.5,27.5,72,49,25,30.19,30.04,26,4,26,0.00
2013-2-14,70.6,54.1,37.3,39.8,35.1,31.4,80,53,26,30.18,30.03,14,1,14,0.00
2013-2-15,66.0,53.4,41.9,44.4,35.5,18.7,82,54,27,30.41,30.10,24,5,24,0.00
2013-2-16,58.7,44.1,37.3,24.6,22.6,20.2,54,43,26,30.51,30.41,11,2,11,0.00
2013-2-17,71.3,64.5,62.0,52.6,47.7,38.2,71,56,31,30.07,30.01,20,5,21,0.00
2013-2-18,81.6,69.0,61.6,61.4,50.9,23.6,85,57,16,30.10,29.86,20,4,20,0.00
2013-2-19,69.6,59.0,46.0,33.9,29.9,24.1,59,35,19,30.28,30.09,17,4,17,0.00
2013-2-20,69.4,60.1,52.6,65.4,52.6,32.4,93,78,38,30.13,29.68,22,4,22,0.01
2013-2-21,78.8,70.8,57.3,66.2,43.6,17.7,87,47,13,29.89,29.61,25,4,25,0.01
2013-2-22,61.3,54.6,48.6,39.4,33.1,22.7,69,45,26,30.05,29.89,23,6,23,0.00
2013-2-23,74.2,56.4,43.8,39.5,33.7,27.6,60,44,24,30.09,29.88,17,3,17,0.00
2013-2-24,69.8,58.0,41.5,59.3,48.2,33.8,91,70,54,29.96,29.62,17,2,17,0.00
2013-2-25,66.4,58.7,48.8,59.6,35.0,13.1,95,48,13,29.90,29.59,38,7,38,0.02
2013-2-26,67.3,53.8,41.2,29.0,26.2,22.6,59,37,20,30.00,29.89,17,2,17,0.00
2013-2-27,65.0,54.6,44.3,38.4,28.8,20.4,73,40,20,30.25,29.90,36,5,36,0.00
2013-2-28,62.7,50.4,43.6,28.9,23.8,18.1,53,37,19,30.37,30.21,21,3,24,0.00
2013-3-1,71.3,53.4,35.9,28.6,23.7,12.0,64,36,15,30.32,30.14,13,1,13,0.00
2013-3-2,64.3,52.3,40.5,29.0,25.6,20.1,59,37,21,30.46,30.29,25,4,25,0.00
2013-3-3,77.0,57.4,37.5,43.8,32.4,25.2,66,42,18,30.30,29.98,22,3,22,0.00
2013-3-4,87.6,68.9,54.8,57.0,48.8,40.7,84,54,21,29.99,29.74,17,3,17,0.00
2013-3-5,68.1,59.0,46.7,57.0,28.1,9.2,87,38,13,30.39,29.81,33,8,33,0.00
2013-3-6,65.6,51.9,37.6,29.6,17.4,11.7,45,27,13,30.48,30.25,15,2,15,0.00
2013-3-7,74.4,58.2,42.1,54.1,45.8,29.5,82,65,39,30.27,30.12,18,3,18,0.00
2013-3-8,69.6,63.7,60.2,65.0,58.9,52.7,94,84,74,30.16,30.00,21,2,21,0.05
2013-3-9,75.3,68.0,63.5,64.9,62.6,59.0,94,83,67,30.05,29.67,27,4,27,0.01
2013-3-10,69.4,62.9,51.9,63.9,42.5,28.9,93,51,25,30.17,29.68,28,7,28,0.30
2013-3-11,69.8,54.5,39.6,35.1,27.6,18.0,74,40,18,30.23,30.03,26,4,26,0.00
2013-3-12,81.2,61.0,40.3,40.7,31.7,24.4,77,38,14,30.24,30.09,17,1,17,0.00
2013-3-13,80.1,62.8,45.8,47.0,38.6,32.5,82,46,20,30.46,30.24,14,1,14,0.00
2013-3-14,79.9,64.0,47.3,53.9,46.3,36.7,85,57,26,30.42,30.25,16,2,16,0.00
2013-3-15,82.4,66.7,51.7,56.3,48.1,37.3,93,59,21,30.28,30.03,19,3,19,0.00
2013-3-16,85.7,69.5,57.0,61.6,56.5,47.4,92,67,27,30.04,29.77,25,5,25,0.00
2013-3-17,88.8,73.8,65.6,65.0,60.7,55.5,84,67,33,29.84,29.66,22,2,22,0.00
2013-3-18,95.1,76.1,65.6,64.9,55.5,31.8,91,58,11,29.95,29.74,21,3,21,0.00
2013-3-19,79.9,68.2,55.1,63.8,55.1,45.3,80,63,51,30.01,29.85,18,2,18,0.00
2013-3-20,74.2,64.3,57.2,63.6,47.9,35.5,84,59,26,30.25,29.96,32,5,32,0.00
2013-3-21,76.3,65.6,53.6,61.7,52.6,40.9,82,64,51,30.07,29.67,20,3,20,0.00
2013-3-22,89.9,74.1,64.0,67.6,63.6,52.8,92,73,36,29.76,29.64,16,2,16,0.00
2013-3-23,84.5,65.7,54.2,61.5,54.0,47.8,86,68,42,29.82,29.62,15,3,16,0.00
2013-3-24,68.3,56.2,47.0,59.3,31.7,14.9,86,44,17,30.20,29.72,36,10,36,0.00
2013-3-25,60.9,49.6,39.3,26.0,18.5,7.3,53,32,13,30.42,30.20,22,3,22,0.00
2013-3-26,68.8,53.4,39.1,26.5,19.3,14.5,50,29,13,30.52,30.32,12,1,12,0.00
2013-3-27,69.6,57.2,41.5,50.3,38.9,26.5,67,51,37,30.36,30.19,18,2,19,0.00
2013-3-28,72.5,65.6,59.2,57.8,55.1,50.6,80,69,57,30.23,30.14,19,2,19,0.00
2013-3-29,78.1,68.7,57.6,60.4,57.0,53.8,93,69,45,30.20,30.07,16,2,16,0.00
2013-3-30,84.9,73.4,65.6,63.9,61.0,57.2,87,68,40,30.13,29.91,17,2,17,0.00
2013-3-31,86.1,71.8,66.6,65.1,63.0,60.3,90,75,43,29.98,29.83,17,1,17,0.03
2013-4-1,88.8,74.1,64.0,65.5,61.8,56.6,92,69,35,30.06,29.90,20,2,20,0.00
2013-4-2,80.9,70.8,65.6,65.7,63.3,58.8,92,78,55,30.05,29.82,22,2,22,0.58
2013-4-3,62.6,58.2,56.9,59.0,56.2,52.9,95,93,87,30.05,29.98,33,5,33,0.52
2013-4-10,54.0,52.5,51.3,44.5,43.5,42.2,72,71,70,29.97,29.92,20,9,20,0.12
2013-4-11,69.8,55.8,46.2,43.5,39.3,34.6,80,56,31,30.02,29.83,21,4,21,0.04
2013-4-12,56.0,51.4,47.4,44.5,43.5,42.5,84,75,61,29.95,29.92,0,0,0,0.00
2013-4-18,65.5,59.4,53.1,62.4,45.8,39.8,92,62,43,30.10,29.79,29,11,29,0.20
2013-4-19,65.0,58.4,53.6,40.1,35.9,20.7,51,44,21,30.32,30.10,24,10,24,0.00
2013-4-20,75.8,59.9,42.2,48.0,33.5,23.9,77,43,15,30.27,30.02,19,2,19,0.00
2013-4-21,81.4,62.5,52.8,54.5,49.9,46.9,82,66,35,30.16,30.05,14,1,14,0.00
2013-5-5,79.9,71.3,62.4,47.5,45.9,40.7,57,42,25,30.11,30.03,11,1,12,0.00
2013-5-6,78.1,65.9,51.3,52.2,47.5,43.0,79,54,33,30.18,30.02,10,0,10,0.00
2013-5-7,62.3,57.8,54.7,52.3,50.8,49.1,82,77,68,30.07,30.06,4,0,4,0.00
2013-5-10,84.1,74.4,65.2,67.1,63.0,56.5,93,69,42,30.04,29.88,28,4,28,0.15
2013-5-11,65.6,65.1,64.8,62.0,61.8,61.2,90,89,86,30.08,30.01,8,1,10,0.00
2013-5-15,76.0,74.8,74.4,69.1,68.7,68.4,82,81,79,29.91,29.87,19,4,19,0.17
2013-5-16,96.1,80.6,72.3,72.8,68.7,65.0,84,69,37,29.88,29.73,19,4,19,0.00
2013-5-17,96.3,82.6,74.7,73.2,70.4,66.7,86,69,42,29.92,29.81,18,3,18,0.00
2013-5-18,95.1,81.3,73.3,71.5,67.5,61.3,90,66,36,29.94,29.83,22,3,22,0.00
2013-5-19,93.8,81.7,73.9,70.8,68.5,63.4,85,66,38,29.87,29.74,21,4,21,0.00
2013-5-20,93.4,81.4,72.7,71.7,69.1,64.2,91,69,44,29.86,29.71,23,4,23,0.00
2013-5-21,91.0,81.7,72.1,71.7,70.1,60.7,87,69,51,29.88,29.70,22,3,22,0.00
2013-5-22,91.6,78.6,66.1,72.2,65.1,58.6,82,64,47,29.94,29.81,15,2,15,0.00
2013-5-23,93.2,81.9,75.1,72.2,70.7,68.1,88,71,45,30.03,29.87,19,2,19,0.00
2013-5-24,81.1,74.7,69.9,73.0,70.8,65.3,95,88,71,30.12,30.01,22,1,22,0.66
2013-5-25,79.9,73.7,69.4,73.0,70.3,67.7,96,90,71,30.18,30.04,17,1,17,1.73
2013-5-26,87.2,78.1,72.3,73.2,70.3,65.7,93,78,51,30.10,29.99,14,2,20,0.00
2013-5-27,90.7,79.8,72.3,71.1,69.8,67.4,91,73,51,30.05,29.86,19,3,19,0.00
2013-5-28,89.9,80.8,74.9,71.1,69.8,67.2,85,71,49,29.93,29.78,23,5,23,0.00
2013-5-29,86.3,79.3,74.7,71.8,70.7,69.1,87,75,60,29.90,29.74,27,4,27,0.00
2013-5-30,91.6,82.4,76.5,73.1,71.3,69.2,84,70,49,29.85,29.77,18,3,18,0.00
2013-5-31,94.9,83.2,76.0,73.2,72.4,70.7,88,71,47,29.90,29.76,17,2,17,0.00
2013-6-1,96.6,85.1,77.6,73.2,71.8,69.3,85,67,42,29.91,29.80,20,3,20,0.00
2013-6-2,88.0,77.8,68.6,73.9,66.6,60.7,92,71,41,30.07,29.90,26,2,26,0.07
2013-6-3,95.6,80.7,65.6,69.3,63.4,55.2,87,60,28,30.00,29.84,11,1,11,0.00
2013-6-4,96.1,82.0,70.6,71.2,66.8,57.5,93,64,29,29.94,29.80,13,1,13,0.00
2013-6-5,96.1,82.3,70.3,71.2,67.0,59.9,91,64,32,29.90,29.75,17,1,17,0.00
2013-6-6,96.1,83.0,71.6,71.2,66.6,59.6,90,61,31,29.94,29.77,20,1,20,0.00
2013-6-7,82.0,75.0,69.6,70.4,65.6,62.0,89,73,55,30.00,29.89,14,2,14,0.03
2013-6-8,92.9,78.2,64.3,71.9,65.8,59.2,90,68,42,29.95,29.81,15,1,16,0.00
2013-6-9,91.4,79.9,73.7,74.6,71.9,62.6,92,78,49,29.97,29.85,14,1,14,0.16
2013-6-10,96.6,82.7,72.5,74.0,69.8,63.2,92,68,35,30.01,29.91,14,1,14,0.00
2013-6-11,94.3,79.6,74.7,73.8,70.8,65.2,92,76,42,30.06,29.97,28,1,28,0.01
2013-6-12,93.4,80.2,73.9,75.3,72.2,67.5,94,78,45,30.07,29.98,17,1,17,0.03
2013-6-13,93.6,80.1,76.1,75.7,72.7,67.1,92,79,48,30.08,29.95,22,0,22,0.03
2013-6-14,90.5,81.5,75.4,77.3,73.0,70.3,95,77,53,30.02,29.90,9,0,13,0.02
2013-6-15,94.7,84.4,77.2,76.1,72.6,68.0,92,70,44,30.01,29.90,13,1,13,0.00
2013-6-16,97.5,84.9,75.6,74.2,71.6,66.7,92,68,38,30.03,29.90,16,1,16,0.00
2013-6-17,97.3,86.4,78.3,73.9,70.8,63.9,85,63,35,30.02,29.85,14,2,14,0.00
2013-6-18,98.0,86.0,76.7,73.3,68.7,57.6,89,60,28,30.02,29.88,14,1,14,0.00
2013-6-19,99.0,86.2,77.0,73.6,69.1,58.5,86,61,27,30.00,29.90,16,2,16,0.00
2013-6-20,98.2,85.2,75.6,73.7,69.3,57.9,90,63,28,30.07,29.96,20,3,20,0.00
2013-6-21,97.8,85.6,76.0,74.5,67.9,56.3,92,61,27,30.09,29.98,17,3,18,0.00
2013-6-22,99.0,85.8,76.8,73.9,68.3,56.7,87,61,26,30.06,29.90,19,3,19,0.00
2013-6-23,97.1,85.4,77.4,73.9,67.3,54.9,88,59,27,30.00,29.89,18,3,18,0.00
2013-6-24,97.8,85.4,75.8,74.0,69.5,61.5,91,63,31,30.05,29.91,20,4,21,0.00
2013-6-25,99.2,86.6,77.4,73.4,68.6,59.8,86,59,30,30.02,29.88,23,4,23,0.00
2013-6-26,101.0,87.5,77.4,72.9,69.1,56.6,85,59,28,30.00,29.89,15,4,16,0.00
2013-6-27,103.1,88.4,77.7,73.2,65.6,52.1,81,53,20,30.04,29.90,15,2,15,0.00
2013-6-28,104.4,89.1,75.6,73.1,65.5,57.0,89,52,22,30.02,29.82,12,1,12,0.00
2013-6-29,107.7,92.8,77.0,71.0,63.2,53.0,77,43,18,29.89,29.73,17,2,17,0.00
2013-6-30,91.8,81.4,71.3,72.0,67.6,59.5,91,65,34,29.98,29.80,21,1,21,0.11
2013-7-1,91.0,82.0,73.2,68.3,56.0,47.7,73,43,25,30.01,29.89,19,4,19,0.00
2013-7-2,93.2,81.0,66.8,58.5,53.1,46.0,74,42,21,30.09,29.97,18,2,18,0.00
2013-7-3,98.0,83.3,70.1,62.8,48.6,36.4,57,34,14,30.05,29.89,14,2,16,0.00
2013-7-4,97.5,84.4,70.6,69.6,60.5,50.9,84,50,21,30.01,29.88,11,1,12,0.00
2013-7-5,98.5,85.3,71.1,70.6,63.1,52.8,84,53,23,30.00,29.84,15,2,18,0.00
2013-7-6,98.2,85.8,73.9,72.0,66.4,57.3,84,57,26,29.95,29.81,16,2,19,0.00
2013-7-7,98.7,84.5,76.0,74.3,71.1,64.7,88,67,35,29.99,29.88,25,1,25,0.00
2013-7-8,90.3,82.2,77.2,74.2,71.6,68.1,87,71,53,30.14,29.98,14,1,15,0.00
2013-7-9,99.9,85.6,75.3,75.3,70.7,63.8,94,65,31,30.16,30.01,21,2,21,0.00
2013-7-10,101.2,86.0,75.3,74.5,69.8,60.8,91,62,27,30.12,29.94,17,1,17,0.00
2013-7-11,83.0,79.4,76.7,72.1,71.4,69.6,85,77,64,30.02,30.01,10,0,10,0.00
2013-7-13,103.8,97.6,87.4,62.2,56.6,52.9,43,26,19,29.91,29.84,13,1,13,0.00
2013-7-14,99.9,83.9,76.0,71.6,67.1,54.3,81,60,27,29.92,29.84,30,2,30,0.08
2013-7-20,96.3,88.4,79.2,72.8,68.0,59.5,79,53,30,30.00,29.85,13,2,17,0.00
2013-7-21,94.5,83.1,76.0,75.4,72.9,67.0,92,73,42,29.98,29.89,21,2,21,0.00
2013-7-22,97.3,86.2,77.7,76.2,72.6,66.6,92,67,38,30.01,29.90,18,3,18,0.00
2013-7-23,99.7,86.9,78.6,74.9,69.9,58.5,83,61,27,30.04,29.88,19,3,19,0.00
2013-7-24,97.3,85.9,76.5,74.2,71.0,65.0,90,64,37,30.01,29.88,14,1,14,0.00
2013-7-25,99.7,86.7,76.3,73.9,70.4,61.2,91,63,29,30.04,29.95,17,1,17,0.00
2013-7-26,100.2,86.8,76.0,75.7,71.5,61.0,92,64,28,30.05,29.88,18,2,18,0.00
2013-7-27,90.7,83.5,76.8,74.6,71.6,67.2,86,68,48,30.00,29.87,18,3,20,0.00
2013-7-28,98.5,85.5,76.7,74.3,70.0,65.3,81,62,35,29.96,29.85,17,2,17,0.00
2013-7-29,99.4,87.0,77.9,74.3,69.2,59.6,87,60,29,30.06,29.94,23,4,23,0.00
2013-7-30,101.2,87.3,78.5,73.6,69.2,60.0,83,59,27,30.11,29.98,19,3,19,0.00
2013-7-31,103.3,88.2,76.3,73.1,65.6,48.0,86,54,17,30.12,29.93,13,1,14,0.00
2013-8-1,102.3,89.0,77.0,73.8,67.7,61.0,84,54,27,30.05,29.90,12,1,12,0.00
2013-8-2,101.0,89.0,76.3,73.3,66.7,59.4,85,51,27,30.01,29.88,15,2,15,0.00
2013-8-3,99.9,89.2,77.2,75.2,69.0,61.8,89,55,29,30.04,29.92,17,3,18,0.00
2013-8-4,100.7,87.4,78.1,75.6,70.7,62.9,89,61,30,30.08,29.93,17,2,17,0.00
2013-8-5,102.5,88.2,77.0,74.0,68.7,59.5,87,57,26,30.06,29.88,21,3,21,0.00
2013-8-6,104.4,89.0,77.2,73.8,68.7,58.2,87,56,23,29.98,29.81,19,3,19,0.00
2013-8-7,104.9,88.9,77.9,73.6,68.5,55.5,85,57,20,29.95,29.79,19,2,19,0.00
2013-8-8,103.8,88.9,79.0,73.4,67.7,53.1,81,55,19,29.93,29.78,15,3,20,0.00
2013-8-9,102.8,82.2,76.0,73.8,70.2,52.3,88,72,21,29.98,29.85,12,1,12,0.00
2013-8-10,102.5,86.9,77.0,76.4,70.6,64.1,80,61,31,30.05,29.93,25,1,25,0.02
2013-8-11,99.2,85.7,78.1,74.7,70.7,63.3,85,63,32,30.09,29.95,18,1,22,0.01
2013-8-12,98.5,86.0,75.3,72.6,69.0,62.8,89,61,32,30.09,29.95,13,1,13,0.00
2013-8-13,102.0,88.5,77.2,74.1,68.3,58.2,88,57,25,30.06,29.88,14,1,14,0.00
2013-8-14,104.4,88.4,77.2,73.3,67.7,51.0,84,55,18,30.02,29.86,16,1,16,0.00
2013-8-15,103.8,86.3,78.5,72.7,67.5,58.1,81,57,23,30.02,29.88,22,1,22,0.00
2013-8-16,99.0,85.1,75.8,74.2,67.9,54.3,86,60,27,30.04,29.90,21,2,21,0.00
2013-8-17,95.9,84.2,73.5,69.1,62.4,52.3,82,53,24,30.05,29.92,18,3,18,0.00
2013-8-18,97.1,84.7,71.8,67.7,59.9,53.9,65,45,26,30.06,29.96,15,1,15,0.00
2013-8-19,98.0,85.1,72.8,67.4,61.6,54.0,75,49,24,30.07,29.92,13,1,13,0.00
2013-8-20,94.7,82.3,73.2,71.3,67.9,57.4,82,64,30,30.04,29.96,20,2,20,0.00
2013-8-21,96.3,82.0,74.9,73.9,69.8,65.7,84,68,39,30.09,29.99,21,1,21,0.03
2013-8-22,98.5,85.8,74.0,74.3,69.5,61.6,89,61,31,30.09,29.92,13,1,13,0.00
2013-8-23,98.2,86.8,76.1,74.3,68.4,59.3,87,59,29,30.04,29.89,14,1,14,0.00
2013-8-24,92.7,81.7,77.6,70.2,69.2,65.3,76,67,44,30.05,29.96,9,0,10,0.00
2013-8-25,95.6,88.3,81.4,71.4,68.2,64.0,69,53,36,30.09,30.00,16,4,16,0.00
2013-8-26,88.8,78.7,74.4,74.0,71.6,68.3,93,80,52,30.12,30.05,15,1,15,0.19
2013-8-27,88.6,79.7,73.9,73.2,71.0,64.8,93,77,51,30.13,30.03,17,2,17,0.00
2013-8-28,96.6,84.0,73.0,74.7,69.0,62.3,93,65,34,30.13,30.00,15,1,15,0.00
2013-8-29,101.2,87.0,75.6,74.5,67.5,59.4,88,57,27,30.11,29.96,10,1,10,0.00
2013-8-30,102.0,88.4,76.7,71.7,66.8,60.4,80,52,27,30.04,29.88,12,1,12,0.00
2013-8-31,101.0,87.5,76.1,71.5,67.8,62.0,82,55,30,29.96,29.82,15,1,15,0.00
2013-9-1,101.0,91.0,75.8,73.4,66.5,59.5,88,48,27,29.94,29.81,9,1,12,0.00
2013-9-2,100.7,87.3,77.6,74.9,68.9,59.0,89,59,27,29.99,29.83,18,1,18,0.00
2013-9-3,98.7,82.7,75.6,72.0,68.3,58.3,79,64,27,30.02,29.88,7,0,7,0.00
2013-9-14,95.4,85.9,72.5,74.3,67.6,58.3,93,59,32,29.95,29.84,29,2,29,0.58
2013-9-15,94.3,80.6,73.7,74.5,71.7,65.9,93,77,42,30.02,29.92,13,2,13,0.00
2013-9-28,95.1,85.3,75.6,75.8,73.4,68.9,93,69,43,29.99,29.86,12,2,19,0.20
2013-9-29,76.5,72.9,68.1,74.3,68.3,64.9,96,86,72,30.07,29.96,19,3,19,1.84
2013-9-30,92.7,76.7,65.3,67.1,61.2,49.7,95,65,25,29.98,29.83,9,0,9,0.01
2013-10-1,92.1,80.1,72.5,74.2,71.9,62.6,95,78,50,29.94,29.84,13,1,13,0.00
2013-10-2,92.7,82.1,75.6,73.9,72.1,66.8,92,74,44,29.98,29.86,14,1,14,0.00
2013-10-3,92.9,82.1,76.0,74.4,71.1,66.6,92,72,43,29.95,29.84,14,2,14,0.00
2013-10-4,92.5,80.6,72.0,72.9,70.5,67.1,94,74,44,29.94,29.84,15,2,15,0.00
2013-10-5,92.9,78.2,64.2,72.7,65.5,42.3,94,68,40,30.06,29.89,24,3,24,0.00
2013-10-6,80.3,66.9,54.4,52.7,45.4,33.8,90,51,19,30.17,30.04,23,5,23,0.16
2013-10-7,60.5,58.1,56.7,50.8,49.3,47.7,76,73,68,30.15,30.14,0,0,0,0.00
2013-10-14,84.1,78.5,73.7,75.5,71.7,69.9,95,80,64,30.05,29.94,14,1,14,0.68
2013-10-15,87.6,77.2,64.7,72.0,69.0,59.6,94,78,52,30.01,29.89,21,1,21,0.00
2013-10-16,64.7,59.3,56.0,60.1,56.4,53.5,95,90,83,30.10,29.96,20,6,20,0.57
2013-10-17,74.0,63.5,54.8,57.7,51.8,46.1,90,68,42,30.16,30.01,14,2,14,0.00
2013-10-18,73.3,65.6,59.2,66.2,60.3,52.9,96,83,68,30.03,29.90,11,0,11,0.23
2013-10-19,67.3,59.5,51.7,63.8,46.6,35.5,96,66,33,30.22,30.00,26,6,26,0.01
2013-10-20,76.7,60.5,46.4,56.5,46.2,41.7,90,64,31,30.14,29.95,7,1,12,0.00
2013-10-21,80.7,69.8,60.4,69.4,62.8,56.7,92,79,62,30.08,29.92,20,1,20,0.01
2013-10-22,75.3,64.9,56.7,56.8,46.8,35.0,82,57,24,30.19,30.07,18,6,18,0.00
2013-10-28,84.5,79.1,71.6,68.0,66.1,63.5,84,65,53,30.10,29.99,23,3,23,0.00
2013-10-29,86.7,76.5,70.4,70.4,67.9,65.9,91,76,51,30.10,29.99,18,2,18,0.00
2013-10-30,85.7,78.5,73.7,74.1,72.2,68.8,94,82,63,30.05,29.80,18,2,18,0.01
2013-10-31,77.9,77.0,75.6,73.3,72.8,72.1,92,87,83,29.82,29.80,20,4,20,0.37
2013-11-2,74.0,67.3,53.8,44.3,36.3,29.6,69,35,20,30.32,30.21,20,4,20,0.00
2013-11-3,73.5,59.6,44.9,53.3,42.5,31.8,85,58,24,30.26,30.06,16,2,16,0.00
2013-11-4,71.6,64.8,58.9,63.8,58.5,52.5,92,80,67,30.09,29.97,11,0,11,0.00
2013-11-5,83.4,72.2,65.0,69.9,66.8,62.8,96,84,54,30.03,29.91,14,1,14,0.00
2013-11-6,79.2,66.1,53.6,69.9,58.2,44.6,93,76,62,30.36,29.99,27,5,27,0.00
2013-11-7,63.1,55.1,47.6,44.8,38.4,30.7,72,55,31,30.49,30.34,19,5,19,0.00
2013-11-8,66.4,58.3,51.1,47.1,41.5,33.8,75,56,32,30.42,30.21,12,1,12,0.00
2013-11-9,72.1,62.4,54.7,59.2,53.4,45.7,89,73,57,30.23,30.13,9,0,10,0.03
2013-11-10,69.3,64.5,62.1,59.1,56.9,53.2,86,77,57,30.32,30.19,10,1,10,0.00
2013-11-11,78.1,66.1,56.9,57.1,54.0,49.4,85,67,42,30.30,30.18,8,0,8,0.00
2013-11-12,63.9,56.8,45.4,54.9,46.5,27.1,85,69,45,30.66,30.26,28,6,28,0.00
2013-11-13,55.7,44.7,36.0,31.0,25.3,18.8,74,48,24,30.68,30.44,18,4,18,0.00
2013-11-14,64.5,49.7,33.8,50.2,36.5,24.8,85,63,28,30.44,30.07,13,1,13,0.00
2013-11-15,78.6,64.1,50.4,60.4,54.4,48.2,93,73,46,30.09,29.89,12,1,12,0.00
2013-11-16,81.4,72.6,63.2,71.2,66.5,59.8,95,82,62,29.95,29.77,19,2,19,0.00
2013-11-17,87.4,77.0,68.3,71.4,67.9,64.9,89,75,52,29.96,29.80,12,0,12,0.00
2013-11-18,77.0,69.3,63.1,67.6,63.6,55.1,95,82,70,30.12,29.96,13,2,15,0.00
2013-11-19,72.8,64.0,56.3,56.3,49.9,42.7,81,61,45,30.17,30.03,13,2,13,0.00
2013-11-20,74.0,65.8,58.1,67.6,58.5,50.3,94,78,63,30.05,29.91,11,1,12,0.00
2013-11-21,83.4,75.5,69.4,71.5,69.9,67.6,95,83,62,30.07,29.95,14,1,14,0.02
2013-11-22,74.6,47.4,37.8,71.2,43.8,32.3,92,87,79,30.41,30.06,32,10,32,0.16
2013-11-23,42.9,40.3,37.9,40.2,36.0,33.2,94,84,78,30.48,30.38,21,10,25,0.00
2013-11-24,43.3,39.6,35.6,39.6,34.2,29.6,92,81,63,30.50,30.34,18,6,21,0.32
2013-11-25,41.2,38.1,35.3,38.2,35.8,33.5,94,91,82,30.35,30.11,24,5,24,0.24
2013-11-26,51.3,43.9,38.8,36.6,33.4,28.4,84,67,52,30.40,30.15,26,7,26,0.00
2013-11-27,51.6,42.3,35.9,29.6,24.6,16.8,73,52,25,30.52,30.39,20,4,20,0.00
2013-11-28,58.1,42.7,32.8,31.3,26.7,17.4,83,58,23,30.50,30.38,7,0,7,0.00
2013-11-29,64.3,49.0,35.8,48.5,41.6,30.4,94,77,53,30.53,30.38,10,1,11,0.00
2013-11-30,70.4,58.3,46.5,57.2,50.7,43.3,90,77,60,30.40,30.21,10,0,10,0.00
2013-12-1,74.0,63.1,55.1,60.0,56.7,52.7,93,81,59,30.22,29.99,12,0,12,0.00
2013-12-2,80.1,66.3,57.2,60.3,56.0,50.0,94,73,36,29.99,29.72,15,1,15,0.00
2013-12-3,85.9,67.0,50.7,59.1,52.0,41.2,94,65,21,29.75,29.63,11,0,12,0.00
2013-12-4,78.1,66.8,60.7,67.1,61.5,55.8,97,84,61,29.82,29.69,13,0,13,0.01
2013-12-5,69.4,53.3,35.0,67.9,47.6,28.0,96,81,62,30.09,29.80,27,8,27,0.00
2013-12-6,40.3,35.1,30.7,32.6,28.6,22.1,92,77,66,30.46,30.08,25,10,27,0.01
2013-12-7,32.2,29.6,27.6,26.8,22.2,19.3,91,74,66,30.50,30.33,22,7,22,0.00
2013-12-8,46.8,37.4,28.7,40.7,32.7,26.5,93,83,70,30.33,30.08,9,1,9,0.00
2013-12-9,43.1,40.3,36.2,42.0,38.5,31.5,96,93,83,30.41,30.10,23,6,23,0.03
2013-12-10,47.4,37.6,31.0,31.9,24.1,17.7,86,61,31,30.55,30.38,27,5,27,0.00
2013-12-11,59.2,44.6,31.6,32.3,27.7,22.7,80,54,27,30.56,30.37,15,1,15,0.00
2013-12-12,51.1,43.8,36.2,36.0,32.4,28.8,75,65,49,30.63,30.35,16,3,16,0.00
2013-12-13,51.0,47.8,44.8,49.9,42.0,35.1,96,81,62,30.35,29.92,12,0,12,0.05
2013-12-14,54.5,49.2,43.8,50.5,41.0,30.6,97,75,56,30.36,29.93,26,6,26,0.01
2013-12-15,63.2,46.7,33.2,31.9,29.2,26.3,79,53,27,30.45,30.32,16,2,16,0.00
2013-12-16,66.1,43.3,31.9,32.9,30.1,28.2,87,65,25,30.37,30.24,11,1,11,0.00
2013-12-17,57.6,50.9,46.2,40.1,38.5,37.8,73,63,52,30.33,30.30,0,0,0,0.00
2013-12-18,71.5,55.5,38.5,53.1,44.7,35.0,87,69,43,30.32,30.08,13,1,13,0.00
2013-12-19,77.0,66.9,55.7,62.5,58.6,50.0,89,76,55,30.08,29.82,23,3,23,0.00
2013-12-20,75.1,70.4,65.2,67.4,64.7,61.7,90,82,70,29.87,29.66,17,1,17,0.00
2013-12-21,73.9,65.0,50.1,67.6,55.4,34.9,93,75,26,29.88,29.54,20,2,20,0.18
2013-12-22,57.5,50.0,40.8,45.1,39.1,30.4,87,67,48,30.40,29.88,20,5,20,0.00
2013-12-23,56.3,42.9,32.5,30.5,27.7,22.9,79,58,28,30.58,30.40,14,2,14,0.00
2013-12-24,61.2,45.5,30.7,41.5,28.0,15.5,86,57,18,30.58,30.31,13,1,13,0.00
2013-12-25,55.7,48.8,40.9,48.2,43.6,38.5,92,83,69,30.41,30.27,13,1,13,0.00
2013-12-26,51.6,47.9,43.5,46.7,39.1,34.8,85,72,62,30.46,30.35,16,3,16,0.01
2013-12-27,58.7,50.3,45.5,45.5,43.4,40.9,91,78,55,30.47,30.34,11,1,11,0.10
2013-12-28,58.7,50.3,42.5,44.8,41.2,30.7,89,73,41,30.36,30.07,7,0,7,0.00
2013-12-29,64.3,50.2,37.2,49.7,42.8,30.8,95,77,56,30.29,30.02,24,3,24,0.01
2013-12-30,42.8,39.8,36.8,30.8,27.0,23.7,78,60,52,30.44,30.24,20,4,24,0.00
2013-12-31,49.4,42.4,37.3,31.5,28.5,24.8,72,59,41,30.50,30.29,10,1,10,0.00
2014-1-1,59.5,50.5,40.3,48.4,40.7,31.4,85,69,60,30.29,30.05,10,0,10,0.00
2014-1-2,52.9,45.0,33.5,49.2,28.7,22.3,90,54,32,30.50,30.11,27,7,27,0.00